Weather History for EGJA - October, 2013

Change the Weather History Date:

Monday, October 7, 2013

  Actual Average Record
Temperature  
Mean Temperature 58 °F -  
Max Temperature 62 °F 57 °F 62 °F (2007)
Min Temperature 55 °F 52 °F 51 °F (2012)
Degree Days  
Heating Degree Days 6    
Growing Degree Days 8 (Base 50)    
Moisture  
Dew Point 56 °F    
Average Humidity 87    
Maximum Humidity 100    
Minimum Humidity 77    
Precipitation  
Precipitation 0.00 in - - ()
Sea Level Pressure  
Sea Level Pressure 30.31 in    
Wind  
Wind Speed 4 mph ()    
Max Wind Speed 7 mph    
Max Gust Speed -    
Visibility 6.2 miles    
Events      
Averages and records for this station are not official NWS values.
T = Trace of Precipitation, MM = Missing Value Source: Averaged Metar Reports

Daily Weather History Graph

Daily Weather History Graph

Search for Another Location

Airport or City:

Trip Planner

Search our weather history database for the weather conditions in past years. The results will help you decide how hot, cold, wet, or windy it might be!

Date:

Astronomy

Oct. 07, 2013 Rise Set
Actual Time 7:17 AM BST 6:34 PM BST
Civil Twilight 6:45 AM BST 7:06 PM BST
Nautical Twilight 6:08 AM BST 7:43 PM BST
Astronomical Twilight 5:30 AM BST 8:21 PM BST
Moon 10:08 AM BST (10/7) 7:49 PM BST (10/7)
Length of Visible Light 12h 20m
Length of Day
11h 16m
Waxing Crescent, 7% of the Moon is Illuminated
Oct 7
Waxing Crescent
Oct 12
First Quarter
Oct 19
Full
Oct 27
Last Quarter
Nov 3
New

Hourly Weather History & Observations

Time (BST) Temp. Dew Point Humidity Pressure Visibility Wind Dir Wind Speed Gust Speed Precip Events Conditions
6:50 AM 55.4 °F 55.4 °F 100% 30.30 in 6.2 mi WSW 3.5 mph - N/A   Partly Cloudy
7:20 AM 55.4 °F 53.6 °F 94% 30.30 in 6.2 mi Variable 2.3 mph - N/A   Partly Cloudy
7:50 AM 55.4 °F 55.4 °F 100% 30.30 in 6.2 mi Variable 2.3 mph - N/A   Partly Cloudy
8:20 AM 57.2 °F 55.4 °F 94% 30.30 in 6.2 mi SW 3.5 mph - N/A   Partly Cloudy
9:20 AM 59.0 °F 57.2 °F 94% 30.33 in 6.2 mi SSW 5.8 mph - N/A   Partly Cloudy
9:50 AM 59.0 °F 57.2 °F 94% 30.33 in 6.2 mi South 5.8 mph - N/A   Scattered Clouds
10:20 AM 59.0 °F 57.2 °F 94% 30.33 in 6.2 mi South 6.9 mph - N/A   Partly Cloudy
10:50 AM 59.0 °F 57.2 °F 94% 30.33 in 6.2 mi South 6.9 mph - N/A   Partly Cloudy
11:20 AM 60.8 °F 55.4 °F 82% 30.33 in 6.2 mi South 6.9 mph - N/A   Partly Cloudy
11:50 AM 60.8 °F 57.2 °F 88% 30.33 in 6.2 mi SSW 5.8 mph - N/A   Partly Cloudy
12:20 PM 60.8 °F 55.4 °F 82% 30.33 in 6.2 mi SW 5.8 mph - N/A   Partly Cloudy
12:50 PM 60.8 °F 55.4 °F 82% 30.33 in 6.2 mi SW 4.6 mph - N/A   Partly Cloudy
1:20 PM 60.8 °F 55.4 °F 82% 30.30 in 6.2 mi SW 4.6 mph - N/A   Partly Cloudy
1:50 PM 62.6 °F 55.4 °F 77% 30.30 in 6.2 mi South 5.8 mph - N/A   Partly Cloudy
2:20 PM 60.8 °F 55.4 °F 82% 30.30 in 6.2 mi South 5.8 mph - N/A   Partly Cloudy
2:50 PM 60.8 °F 55.4 °F 82% 30.30 in 6.2 mi South 5.8 mph - N/A   Partly Cloudy
3:20 PM 60.8 °F 55.4 °F 82% 30.30 in 6.2 mi South 5.8 mph - N/A   Partly Cloudy
3:50 PM 60.8 °F 55.4 °F 82% 30.27 in - South 5.8 mph - N/A   Clear
4:20 PM 60.8 °F 55.4 °F 82% 30.30 in - South 5.8 mph - N/A   Clear
4:50 PM 60.8 °F 55.4 °F 82% 30.30 in - SW 4.6 mph - N/A   Clear
5:20 PM 60.8 °F 55.4 °F 82% 30.30 in - West 4.6 mph - N/A   Clear
5:50 PM 60.8 °F 55.4 °F 82% 30.30 in 6.2 mi WNW 4.6 mph - N/A   Partly Cloudy
6:20 PM 59.0 °F 55.4 °F 88% 30.30 in 6.2 mi WNW 4.6 mph - N/A   Partly Cloudy